Regional Weather Roundup
Issued by NWS

Home | Current Version | Previous Version | Text Only | Print | Product List | Glossary Off
Versions: 1 2 3 4 5 6 7 8 9 10 11 12 13 14 15 16 17 18 19 20 21 22 23 24 25 26 27 28 29 30 31 32 33 34 35 36 37 38 39 40 41 42 43 44 45 46 47 48 49 50

000
ASUS45 KSLC 272310
RWRUT

UTAH REGIONAL WEATHER ROUNDUP
NATIONAL WEATHER SERVICE SALT LAKE CITY UT
400 PM MST TUE JAN 27 2015

UTZ001>011-023>025-280000-

NORTHERN UTAH

CITY           SKY/WX    TMP DP  RH WIND       PRES   REMARKS
BRIGHAM CITY   CLOUDY    46  38  74 NW5       30.17F
HILL AFB       PTSUNNY   49  29  45 NW7       30.16F
LOGAN          CLOUDY    42  35  76 CALM      30.17S
OGDEN          CLOUDY    50  37  61 NW6       30.15F
PROVO AIRPORT  PTSUNNY   52  36  54 CALM      30.18F
SALT LAKE CITY PTSUNNY   56  37  49 CALM      30.14F
VERNAL         MOSUNNY   44  26  49 E5        30.23F
WENDOVER       PTSUNNY   45  34  65 NE3       30.14F
HEBER CITY     CLOUDY    43  32  65 SW12G22   30.18S
WEST JORDAN    SUNNY     52  37  58 SE13      30.16F

$$

UTZ012>022-026-027-280000-

SOUTHERN/CENTRAL UTAH

CITY           SKY/WX    TMP DP  RH WIND       PRES   REMARKS
BLANDING       CLOUDY    51  33  49 CALM      30.34F
BRYCE CANYON   PTSUNNY   39  35  86 SE6       30.29S WCI  35
CEDAR CITY     MOSUNNY   52  35  52 SW14      30.21S
DELTA          MOSUNNY   56  35  44 S23G30    30.17F
MILFORD        SUNNY     54  36  50 S14G22    30.19S
MOAB/CYNLANDS  MOSUNNY   51  31  46 NW5       30.22F
PRICE          CLOUDY    45  26  47 CALM      30.24F
ST GEORGE      MOCLDY    61  43  51 NW6       30.21S
KANAB            N/A     52  39  62 CALM      30.28F

$$

REGIONAL REPORTS     COLORADO/ARIZONA

CITY           SKY/WX    TMP DP  RH WIND       PRES   REMARKS
CRAIG, CO      CLOUDY    40  27  59 CALM      30.22S
GRAND JUNCTION PTSUNNY   51  27  39 NW8       30.24F
RIFLE          CLOUDY    51  25  36 SW13      30.22R
MONTROSE       CLOUDY    51  25  36 N10       30.25S
CORTEZ         SUNNY     54  33  45 CALM      30.27F
PAGE, AZ       NOT AVBL
GRAND CANYON   MOSUNNY   49  36  61 SW12G20   30.28F
KINGMAN        PTSUNNY   62  46  55 SW18      30.21S
FLAGSTAFF      MOSUNNY   50  31  48 SW13      30.30S

$$

REGIONAL REPORTS    NEVADA/IDAHO/WYOMING

CITY           SKY/WX    TMP DP  RH WIND       PRES   REMARKS
LAS VEGAS, NV  PTSUNNY   61  48  62 E6        30.15F
ELY            LGT RAIN  43  36  76 SE18      30.19R
ELKO           LGT RAIN  44  41  89 W9        30.11R
POCATELLO, ID  LGT RAIN  45  40  82 S5        30.14S
BURLEY         CLOUDY    51  37  58 SW13      30.09S
EVANSTON, WY   MOSUNNY   45  31  58 SW16      30.18S
ROCK SPRINGS   PTSUNNY   46  27  47 W12       30.16S
KEMMERER       CLOUDY    45  30  57 SW9       30.18S

$$



USA.gov is the U.S. government's official web portal to all federal, state and local government web resources and services.